Volver al catálogo

SL-14 DEB

ActivoPO
NORAD 45274·DEBRIS·🇷🇺 Russia

Lanzado Aug 15, 1991 desde Plesetsk Cosmodrome

Loading…

Próximos Pases (próximas 24 horas)

TLE

ActualizadoSource: Space-Track

Época: Sep 14, 2026, 10:59 UTC

1 45274U 91056L   26257.45787936  .00000185  00000-0  44379-3 0  9998
2 45274  82.5337  71.7110 0027317 282.3008  77.5057 13.17790105316489

Sigue SL-14 DEB en tiempo real con AllMySat

Download on the App Store